Regional Weather Roundup
Issued by NWS

Home | Current Version | Previous Version | Graphics & Text | Print | Product List | Glossary On
Versions: 1 2 3 4 5 6 7 8 9 10 11 12 13 14 15 16 17 18 19 20 21 22 23 24 25 26 27 28
000
ASUS45 KTFX 162010
RWRMT
MONTANA REGIONAL WEATHER ROUNDUP
NATIONAL WEATHER SERVICE GREAT FALLS MT
100 PM MST THU NOV 16 2017

NOTE: "FAIR" INDICATES FEW OR NO CLOUDS BELOW 12000 FEET WITH NO
SIGNIFICANT WEATHER AND/OR OBSTRUCTIONS TO VISIBILITY.

MTZ001>007-043-162100-
WEST OF THE DIVIDE

CITY           SKY/WX    TMP DP  RH WIND       PRES   REMARKS
KALISPELL      CLOUDY    43  28  55 SW16G23   29.54R
MISSOULA       FAIR      46  26  45 W15       29.60F
BUTTE          CLOUDY    37  24  59 NW5       29.57F
MULLAN PASS    LGT SNOW  25  22  88 MISG      29.54F FOG
ANACONDA         N/A     37  25  60 W13       29.57S WCI  29
DEER LODGE       N/A     43  19  39 W10G22    29.57F
EUREKA           N/A     45  25  45 MISG      29.53R
HAMILTON         N/A     45  25  45 W7        29.61S
LIBBY            N/A     37  36  93 NE7       29.56R
PLAINS           N/A     45  29  53 S6        29.64R
RONAN            N/A     41  29  62 W3        29.67S
$$

MTZ008-052>055-162100-
SOUTHWEST MONTANA

CITY           SKY/WX    TMP DP  RH WIND       PRES   REMARKS
BOZEMAN        FAIR      42  32  67 W13G23    29.52R
DILLON         FAIR      50  25  37 SW22G29   29.53F
W YELLOWSTONE  LGT RAIN  36  34  93 SW22      29.60F WCI  24
TWIN BRIDGES     N/A     46  26  46 W5        29.59R
$$

MTZ009-010-012-014-046-048-049-054-162100-
EAST SLOPES AND CENTRAL MONTANA

CITY           SKY/WX    TMP DP  RH WIND       PRES   REMARKS
CUT BANK       FAIR      38  27  64 W29G40    29.39F WCI  26
GREAT FALLS    FAIR      48  21  34 W35G47    29.44F
MALMSTROM AFB  FAIR      47  22  37 W23G32    29.48R
HELENA         FAIR      44  28  53 W18G29    29.53F
BOWMANS CRNR   FAIR      40  25  55 W24G30    29.47R
CHOTEAU          N/A     43  23  45 W26G36    29.48R
POWER          FAIR      45  23  41 SW20G31   29.46R
RAYNESFORD     PTSUNNY   43  24  46 W21G26    29.49S
ULM            FAIR      47  22  36 W31G41    29.49R
$$

MTZ011-013-016-021-045-047-050-051-162100-
NORTH CENTRAL MONTANA

CITY           SKY/WX    TMP DP  RH WIND       PRES   REMARKS
HAVRE          CLOUDY    41  31  67 SW17      29.39S
LEWISTOWN      FAIR      43  31  62 W23G35    29.46R
CHINOOK          N/A     46  30  53 W22       29.37F
DENTON         PTSUNNY   45  33  62 MISG      29.43R
GEYSER         PTSUNNY   41  27  56 W30G44    29.48R
GRASS RANGE    PTSUNNY   49  28  44 NW33G41   29.41R
STANFORD       FAIR      45  29  55 W29G36    29.46F
WINIFRED       PTSUNNY   48  23  37 W24G32    29.44R
$$

MTZ017>020-022>027-061-062-162100-
NORTHEAST MONTANA

CITY           SKY/WX    TMP DP  RH WIND       PRES   REMARKS
GLASGOW        FAIR      36  25  64 E12       29.37F WCI  28
GLENDIVE       FAIR      38  23  55 S12       29.46F WCI  30
JORDAN           N/A     50  32  50 SW7       29.37F
SIDNEY         FAIR      37  21  52 S20       29.47F WCI  27
WOLF POINT     FAIR      38  24  57 E7        29.41F
PLENTYWOOD       N/A     28  19  69 S22       29.43F WCI  15
POPLAR           N/A     37  21  52 SE8       29.42F WCI  31
SCOBEY           N/A     31  17  56 SE9       29.40F WCI  23
$$

MTZ028>42-056>058-162100-
SOUTHCENTRAL AND SOUTHEAST MONTANA

CITY           SKY/WX    TMP DP  RH WIND       PRES   REMARKS
BAKER          FAIR      37  26  64 SE12      29.48F WCI  29
BILLINGS       FAIR      57  36  45 SW18      29.42F
LIVINGSTON     LGT RAIN  51  36  56 SW20G33   29.45F
MILES CITY     PTSUNNY   40  29  64 SE5       29.45F
BIG TIMBER     PTSUNNY   48  36  61 W14G24    29.47F
EKALAKA          N/A     55  26  32 SE5       29.50F
FORSYTH          N/A     37  30  75 CALM      29.45S
HARLOWTON      PTSUNNY   40  30  68 W26G35    29.47R
LAUREL           N/A     59  36  41 SW16G23   29.44F
ROUNDUP          N/A     57  33  40 W14       29.39S
$$

REGIONAL REPORTS...DAKOTAS

CITY           SKY/WX    TMP DP  RH WIND       PRES   REMARKS
WILLISTON      FAIR      30  19  63 S13G21    29.48F WCI  20
MINOT          CLOUDY    29  21  72 SE20G26   29.58F WCI  16
DICKINSON      FAIR      32  21  64 S15       29.50F WCI  22
BEACH          FAIR      34  23  64 S16G23    29.49F WCI  23
CROSBY         PTSUNNY   27  21  80 S18       29.48F WCI  13
TIOGA          PTSUNNY   25  23  93 S21G32    29.50F WCI  10
WATFORD CITY   FAIR      30  21  69 SE13      29.49F WCI  20
BISMARCK       FAIR      39  25  57 S17G26    29.64F WCI  30
GRAND FORKS    CLOUDY    29  26  89 SE22G35   29.89F WCI  15
FARGO          FAIR      32  25  75 SE25G37   29.90F WCI  19
BUFFALO SD       N/A     34  24  67 SE7       29.45F WCI  28
RAPID CITY     FAIR      72  27  18 W15G23    29.53F
$$

REGIONAL REPORTS...WYOMING/IDAHO/WASHINGTON

CITY           SKY/WX    TMP DP  RH WIND       PRES   REMARKS
GILLETTE       FAIR      65  27  23 SW25G31   29.52F
SHERIDAN       FAIR      64  31  28 SW30G40   29.44F
BUFFALO WY     FAIR      65  24  21 SW30G55   29.48F
CODY           FAIR      55  35  47 SW16G24   29.55F
YELLOWSTONE LA   N/A     34  33  96 W9        29.66F WCI  27
IDAHO FALLS    LGT RAIN  45  41  86 SW22G32   29.70F
SALMON         PTSUNNY   49  28  44 N6G18     29.58F
BOISE          FAIR      52  35  52 N6        29.70F
SPOKANE        PTSUNNY   40  35  83 SW14      29.61F
$$

REGIONAL REPORTS...ALBERTA

CITY           SKY/WX    TMP DP  RH WIND       PRES   REMARKS
EDMONTON       FLURRIES  12   7  79 NW8       29.49S WCI   1
CALGARY        PTSUNNY   14   9  79 NE5       29.42R
LETHBRIDGE     PTSUNNY   19  14  79 NW10G17   29.48R WCI   8
MEDICINE HAT   FLURRIES  18  14  86 W14       29.47R WCI   4
$$

REGIONAL REPORTS...SASKATCHEWAN

CITY           SKY/WX    TMP DP  RH WIND       PRES   REMARKS
SWIFT CURRENT  CLOUDY    36  28  75 SW18      29.23F WCI  25
REGINA         PTSUNNY   23  19  86 SE28      29.38F WCI   6
SASKATOON      LGT SNOW  23  19  86 SE13      29.30F VSB 1   WCI  11
$$




USA.gov is the U.S. government's official web portal to all federal, state and local government web resources and services.